METEOR 2-8 DEB

Satellite information

Favourite Embed

Satellite Type and Status

DEBRISIN ORBIT

Key statistics

Satellite METEOR 2-8 DEB at a glance.

Uptime

15970

Days in orbit

Revolutions

≈ 14.2

Per day

Orbit

LEO

Low Earth Orbit

Inclination

82.5

Latest

Satellite identification and parameters

Extended collection of information and parameters for METEOR 2-8 DEB.

Object identification

Identified? True

Debris? True

Object name: METEOR 2-8 DEB

International designator: 1982-025X

Object number (NORAD): 36337

Object ID (CCSDS): 36337

Country: COMMONWEALTH OF INDEPENDENT STATES (CIS)

Current information (Y/N): Y

RCS size: SMALL

Orbital parameters

Period: 101.565 minutes

Inclination: 82.5263 deg

SMA: 7210.9 km

Apoapsis: 843.688 km

Periapsis: 821.841 km

RAAN: 53.5601 deg

Eccentricy: 0.00151486

Argument of periapsis: 92.7622 deg

Mean anomaly: 267.5291 deg

Mean motion: 14.17811719 rev/day

Mean motion (dot): 0.0000668 rev/day2

B* drag term: 0.0032624022 1/REarth

Two-line elements (TLE)

Creation date: Dec. 11, 2025, 7:14 p.m.

Reference frame: TEME

Reference center: EARTH

Epoch: Dec. 11, 2025, 10:32 a.m. UTC

TLE line 0: 0 METEOR 2-8 DEB

TLE line 1: 1 36337U 82025X 25345.43892638 .00006680 00000-0 32624-2 0 9990

TLE line 2: 2 36337 82.5263 53.5601 0015149 92.7622 267.5291 14.17811719598495

Live tracking on map

Real-time ground track for satellite METEOR 2-8 DEB.

In-orbit conjunctions

A list of the most updated potential collisions computed for object METEOR 2-8 DEB.

Target Orbit TCA Probability of collision Miss distance Type
NOAA 11 SSO 2025-04-19 07:30:43 0.0001412932 377.0 (m) PAYLOAD
NOAA 11 SSO 2025-04-19 04:07:06 0.0001003714 412.0 (m) PAYLOAD
CZ-6A DEB SSO 2024-09-26 22:26:35 0.000136639 293.0 (m) DEBRIS
FENGYUN 1C DEB SSO 2024-08-21 16:44:08 0.0001193173 340.0 (m) DEBRIS

Associated space launch

Second generation soviet meteorological satellite

METEOR 2-8 DEB was lifted into orbit during the mission ‘Tsiklon-3 | Meteor-2 8’, on board a Tsiklon-3 space rocket.

The launch took place on March 25, 1982, 9:50 a.m. from 32/1.

For more information about the launch, click the button.

Launch to space Tsiklon-3 | Meteor-2 8
Tsiklon-3 | Meteor-2 8

Agency: N/A

Status: Launch Successful

Launch date: March 25, 1982, 9:50 a.m. UTC

Rocket: Tsiklon-3

Launch pad: 32/1

Location: Plesetsk Cosmodrome, Russian Federation

...

Latest news about this satellite

There are no fresh news available about this satellite. Check back as we update our databases every day.


Newsletter sign-up

Weekly statistics, charts and insights to help you stay on top of the space industry.